WetterOnline ( http://www.wetteronline.de )

Wetter aktuell Senftenberg

Aktuelles Wetter: Kirchhain (100m)

6-stündlich | Neueste Meldungen
Ortszeit Temperatur Wetter
So, 22.07. 8:00 18.3° C bedeckt
So, 22.07. 2:00 17.3° C bedeckt
Sa, 21.07. 20:00 26.0° C bedeckt
Sa, 21.07. 14:00 27.1° C wolkig
Sa, 21.07. 8:00 18.4° C leicht bewölkt
Sa, 21.07. 2:00 14.0° C wolkig
Fr, 20.07. 20:00 25.7° C fast wolkenlos
Fr, 20.07. 14:00 25.7° C bewölkt
Ortszeit Temperatur Wetter
So, 22.07. 10:30 23.5° C bedeckt
So, 22.07. 10:20 23.5° C bedeckt
So, 22.07. 10:10 23.4° C bedeckt
So, 22.07. 10:00 23.6° C bedeckt
So, 22.07. 9:50 23.6° C bedeckt
So, 22.07. 9:40 24.1° C bedeckt
So, 22.07. 9:30 22.6° C bedeckt
So, 22.07. 9:00 21.9° C bedeckt
So, 22.07. 8:30 20.0° C bedeckt
So, 22.07. 8:00 18.3° C bedeckt
So, 22.07. 7:30 17.7° C bedeckt
Ortszeit Relative Feuchte Sichtweite
So, 22.07. 8:00 69% 20 km
So, 22.07. 2:00 73% 29 km
Sa, 21.07. 20:00 38% 30 km
Sa, 21.07. 14:00 34% 35 km
Sa, 21.07. 8:00 65% 30 km
Sa, 21.07. 2:00 83% 16 km
Fr, 20.07. 20:00 34% 30 km
Fr, 20.07. 14:00 32% 35 km
Ortszeit Relative Feuchte Sichtweite
So, 22.07. 10:30 39% 30 km
So, 22.07. 10:20 39% -
So, 22.07. 10:10 45% -
So, 22.07. 10:00 44% 30 km
So, 22.07. 9:50 44% -
So, 22.07. 9:40 45% -
So, 22.07. 9:30 47% 35 km
So, 22.07. 9:00 52% 28 km
So, 22.07. 8:30 61% 29 km
So, 22.07. 8:00 69% 20 km
So, 22.07. 7:30 73% 21 km
Ortszeit Niederschlagsmenge Niederschlagsart
So, 22.07. 8:00 0.0 l/m2 in 12 Std. -
So, 22.07. 2:00 0.0 l/m2 in 6 Std. -
Sa, 21.07. 20:00 0.0 l/m2 in 12 Std. -
Sa, 21.07. 14:00 0.0 l/m2 in 6 Std. -
Sa, 21.07. 8:00 0.0 l/m2 in 12 Std. -
Sa, 21.07. 2:00 0.0 l/m2 in 6 Std. -
Fr, 20.07. 20:00 0.0 l/m2 in 12 Std. -
Fr, 20.07. 14:00 0.0 l/m2 in 6 Std. -
Ortszeit Niederschlagsmenge Niederschlagsart
So, 22.07. 10:30 0.0 l/m2 in 1 Std. -
So, 22.07. 10:20 keine Meldung -
So, 22.07. 10:10 keine Meldung -
So, 22.07. 10:00 0.0 l/m2 in 1 Std. -
So, 22.07. 9:50 keine Meldung -
So, 22.07. 9:40 keine Meldung -
So, 22.07. 9:30 0.0 l/m2 in 1 Std. -
So, 22.07. 9:00 0.0 l/m2 in 1 Std. -
So, 22.07. 8:30 0.0 l/m2 in 1 Std. -
So, 22.07. 8:00 0.0 l/m2 in 1 Std. -
So, 22.07. 7:30 0.0 l/m2 in 1 Std. -
Ortszeit Stärke Spitze Richtung
km/h Bft. km/h Grad Sektor
So, 22.07. 8:00 4 1 7 60° NO
So, 22.07. 2:00 2 1 15 260° W
Sa, 21.07. 20:00 7 2 29 60° NO
Sa, 21.07. 14:00 14 3 25 30° NO
Sa, 21.07. 8:00 7 2 14 60° NO
Sa, 21.07. 2:00 2 1 13 360° N
Fr, 20.07. 20:00 7 2 22 70° O
Fr, 20.07. 14:00 9 2 20 350° N
Ortszeit Stärke Spitze Richtung
km/h Bft. km/h Grad Sektor
So, 22.07. 10:30 11 2 18 20° N
So, 22.07. 10:20 11 2 - 20° N
So, 22.07. 10:10 11 2 - 10° N
So, 22.07. 10:00 11 2 18 20° N
So, 22.07. 9:50 11 2 - 20° N
So, 22.07. 9:40 11 2 - 30° NO
So, 22.07. 9:30 7 2 14 30° NO
So, 22.07. 9:00 9 2 13 60° NO
So, 22.07. 8:30 7 2 11 70° O
So, 22.07. 8:00 4 1 7 60° NO
So, 22.07. 7:30 0 0 4 - -
Ortszeit Untergrenze Bedeckung Gattung
total tief tief mittel hoch
So, 22.07. 8:00 3900 m 8/8 8/8 - - -
So, 22.07. 2:00 4200 m 8/8 8/8 - - -
Sa, 21.07. 20:00 6300 m 8/8 8/8 - - -
Sa, 21.07. 14:00 6300 m 8/8 3/8 - - -
Sa, 21.07. 8:00 10500 m 8/8 0/8 - - -
Sa, 21.07. 2:00 9000 m 8/8 0/8 - - -
Fr, 20.07. 20:00 2700 m 1/8 1/8 - - -
Fr, 20.07. 14:00 2100 m 7/8 7/8 - - -
Ortszeit Bedeckungsgrad in Achtel und Wolkenuntergrenze
So, 22.07. 10:30 8(4500m) 8(4800m)
So, 22.07. 10:20 8(4500m) 8(4800m)
So, 22.07. 10:10 8(4500m)
So, 22.07. 10:00 8(4500m) 8(4800m) 8(5700m)
So, 22.07. 9:50 8(4500m) 8(4800m) 8(5700m)
So, 22.07. 9:40 8(4200m) 8(4800m) 8(5700m)
So, 22.07. 9:30 8(4200m) 8(4800m) 8(5700m)
So, 22.07. 9:00 8(4200m) 8(5400m) 8(6000m)
So, 22.07. 8:30 8(3600m) 8(6000m) 8(10500m)
So, 22.07. 8:00 8(3900m)
So, 22.07. 7:30 8(4500m)
Ortszeit Luftdruck NN (hPa) Tendenz (hPa in 3 Std.)
So, 22.07. 8:00 1013 + 0,7
So, 22.07. 2:00 1012 + 0,3
Sa, 21.07. 20:00 1011 0,0
Sa, 21.07. 14:00 1011 - 0,7
Sa, 21.07. 8:00 1012 - 0,3
Sa, 21.07. 2:00 1013 - 0,1
Fr, 20.07. 20:00 1012 - 0,8
Fr, 20.07. 14:00 1014 - 0,9
Ortszeit Luftdruck NN (hPa) Tendenz (hPa in 3 Std.)
So, 22.07. 10:30 1013 + 0,5
So, 22.07. 10:20 1013 keine Meldung
So, 22.07. 10:10 1013 keine Meldung
So, 22.07. 10:00 1013 + 0,5
So, 22.07. 9:50 1013 keine Meldung
So, 22.07. 9:40 1013 keine Meldung
So, 22.07. 9:30 1013 + 0,5
So, 22.07. 9:00 1013 + 0,7
So, 22.07. 8:30 1013 + 0,8
So, 22.07. 8:00 1013 + 0,7
So, 22.07. 7:30 1013 + 0,4
Ortszeit Schneehöhe (cm)
So, 22.07. 8:00 -
So, 22.07. 2:00 -
Sa, 21.07. 20:00 -
Sa, 21.07. 14:00 -
Sa, 21.07. 8:00 -
Sa, 21.07. 2:00 -
Fr, 20.07. 20:00 -
Fr, 20.07. 14:00 -
Ortszeit Schneehöhe (cm)
So, 22.07. 10:30 -
So, 22.07. 10:20 -
So, 22.07. 10:10 -
So, 22.07. 10:00 -
So, 22.07. 9:50 -
So, 22.07. 9:40 -
So, 22.07. 9:30 -
So, 22.07. 9:00 -
So, 22.07. 8:30 -
So, 22.07. 8:00 -
So, 22.07. 7:30 -
Link zu dieser Seite / Seite empfehlen

Das Wetter in ...